Starlink 32868

operational
NORAD ID: 62854 Int'l Des: 2025-022 Owner: SPXS Country: US Constellation: starlink
LEOCIRCULAR

Starlink 32868について

説明を読み込み中...

リアルタイム位置

3D地球を読み込み中...

次回通過

高度履歴

Altitude vs Time

uPlot chart will show altitude changes over time

軌道要素

1 62854U 25022A 26033.93340971 .00023840 00000-0 81400-3 0 9999
2 62854 53.1597 290.7011 0001246 85.9717 274.1427 15.30218512 57396
Epoch: Feb 2, 2026 • Age: 31 hours

現在のステータス

高度 476.5 km
速度 7.63 km/s
衛星直下点 -3.65°S, 101.68°W
打ち上げ日 Feb 2, 2025
運用期間 1 years
タイプ internet

技術仕様

分類 Payload
質量 730.00 kg
乾燥質量 700.00 kg
総質量 730.00 kg
長さ 0.30 m
直径 4.10 m
スパン 29.00 m
形状 Box + pan
製造者 SPXS
バスタイプ Starlink V2M
フェーズステータス In Orbit
所有者/国 SPXS/US

大規模コンステレーション

Loading constellations...